Weather in Toroni

Greece     39°59′02″N   23°54′18″E
temp.,
°C
wind,
m/s
gust,
m/s
humid.,
%
clouds,
%
prec.,
mm/h
press.,
hPa
HPBL,
m
18 april, sun
sun1800:00+12n33881 0.0 1012110
03:00+10n33882 0.0 1012130
06:00+10nne34893 0.0 1013156
09:00+12nne4482100 0.0 1013387
12:00+14nne327293 0.0 1013573
15:00+15e2371100 0.0 1013417
18:00+14ese3280100 0.0 1013318
21:00+12n2287100 0.0 101485
19 april, mon
mon1900:00+13nne2285100 0.0 1014101
03:00+12nne339099 0.1 1013113
06:00+12nnw34925 0.0 1012122
09:00+15nnw228110 0.0 1012365
12:00+16se117699 0.3 1011466
15:00+16se437318 0.9 1009772
18:00+14wsw477497 1.1 1008449
21:00+13wsw34778 1.2 100876
20 april, tue
tue2000:00+12nw47821 0.1 1008221
03:00+10nw47785 0.2 1009245
06:00+10w347715 0.0 1010144
09:00+13wnw35570 0.0 1012492
12:00+16w35493 0.0 10141001
15:00+17wsw55474 0.0 10141233
18:00+16sw44530 0.0 1013375
21:00+12wsw34788 0.0 1016101
21 april, wed
wed2100:00+12nnw22789 0.3 101653
03:00+11n22782 0.3 101745
06:00+11nnw33843 0.1 101777
09:00+14nnw22710 0.1 1018339
12:00+16s225411 0.0 10191011
15:00+17ssw44505 0.0 1018991
18:00+16ssw44555 0.0 1018360
21:00+13sw22719 0.0 101929
22 april, thu
thu2200:00+12sw12736 0.0 102022
03:00+12wnw117616 0.0 102016
06:00+12n226417 0.0 102034
09:00+15ne22555 0.0 1021236
12:00+17se32533 0.0 1022713
15:00+17sse43535 0.0 1021837
18:00+16sse33605 0.0 1020397
21:00+14sse2277100 0.0 102123